FENGYUN 1C DEB, 31807

Orbit data source: Space-Track

FENGYUN 1C DEB, 31807 is space debris in SSO originally from a launch on Mon, 10 May 1999 UTC launched from the Taiyaun Space Center, China (TSC). Fengyun 1C debris stems from the Chinese weather satellite Fengyun-1C, which was intentionally destroyed by a Chinese anti-satellite missile in 2007. This event dramatically increased the amount of space debris, with thousands of trackable fragments posing hazards to satellites and human spaceflight. The Fengyun 1C debris cloud has become a focal point in discussions about space sustainability and the need for international regulations to prevent the creation of new debris.

Loading next visibility...
Identifier
31807, 1999-025CGV
Orbit
SSO
Country
Flag of CNCN / PRC
Related business
Manufacturer
Unknown
Mission
Spacecraft
Bus & Motor
Unknown
Mass
Unknown
Launch date (UTC)
1999-05-10 (27 years ago)
Launch vehicle
Unknown
Launch site
Taiyaun Space Center, China (TSC)
Object type
Payload
Rocket body
Debris
Shape & HBR
Unknown shape, 0.1 m
Radar Cross Section
Small (<0.1 m²)

Expand to show TLE details & history
Last TLE update: 1 day ago

TLE from 1 day ago
0 FENGYUN 1C DEB
1 31807U 99025CGV 26070.17577037  .00004021  00000-0  92724-3 0  9990
2 31807  99.0852 213.3316 0103496 256.7598 102.2035 14.52689048665892
Epoch: 2026-03-11T04:13Z
TLE epoch observation values (Epoch: 2026-03-11T04:13:06.559Z)
Latitude
Longitude
-18.7895°
Altitude
736.075 km
Speed
7.478 km/s
True Right ascension
14h 13m 19s
True Declination
0° 00' 00"
Sunlit
Object was in full shadow at epoch
Visualization orbit readout
Latitude
Unknown
Longitude
Unknown
Altitude
Unknown
Speed
Unknown
Apparent Right ascension
Unknown
Apparent Declination
Unknown
Sunlit
N/A
Visualization observer readout
Local Sidereal Time
19:57:44
Azimuth
Unknown
Elevation
Unknown
Doppler factor
Unknown
Orbital elements
Apogee altitude
787.413 km
Perigee altitude
640.612 km
Semi-major axis
7,092.15 km
Eccentricity
0.01035
Inclination
99.0852°
RAAN
213.3316°
Arg. of periapsis
256.7598°
True anomaly
103.35944°
Mean anomaly
102.2035°
Eccentric anomaly
102.78179°
Mean motion
3.63393 °/min
Orbital period
99.07 mins
BSTAR
0.00092724
Loading maneuver chart data...
Computing Atmospheric mass density...

Documentation

Showing up to 5 results
|